This is the latest recevied weather packets stored in our database for station/object K0SNA. If no packets are shown the sender has not sent any weather packets the latest 1 day(s).
| Time | Temp. | Humidity | Pressure | Rain* | Wind** | Luminosity | Snow |
|---|---|---|---|---|---|---|---|
| 1777987323 | 5.56° C | 45% | 1011 hPa | 0 mm | 0.89 m/s, 203° | 39 W/m² | - |
| 1777987019 | 5.56° C | 45% | 1010.9 hPa | 0 mm | 1.34 m/s, 77° | 204 W/m² | - |
| 1777986717 | 5.56° C | 46% | 1010.8 hPa | 0 mm | 1.79 m/s, 338° | 191 W/m² | - |
| 1777986414 | 5° C | 46% | 1010.7 hPa | 0 mm | 1.34 m/s, 227° | 141 W/m² | - |
| 1777986113 | 5° C | 47% | 1010.8 hPa | 0 mm | 1.79 m/s, 293° | 166 W/m² | - |
| 1777985809 | 5° C | 47% | 1010.8 hPa | 0 mm | 0.89 m/s, 117° | 156 W/m² | - |
| 1777985507 | 5° C | 49% | 1010.5 hPa | 0 mm | 1.34 m/s, 332° | 142 W/m² | - |
| 1777985203 | 5° C | 49% | 1010.5 hPa | 0 mm | 1.79 m/s, 338° | 39 W/m² | - |
| 1777984899 | 5° C | 50% | 1010.2 hPa | 0 mm | 0 m/s | 117 W/m² | - |
| 1777984590 | 5° C | 51% | 1010.2 hPa | 0 mm | 1.34 m/s, 336° | 45 W/m² | - |
| 1777984287 | 4.44° C | 51% | 1010 hPa | 0 mm | 1.34 m/s, 338° | 100 W/m² | - |
| 1777983983 | 4.44° C | 51% | 1010.1 hPa | 0 mm | 1.79 m/s, 288° | 90 W/m² | - |
| 1777983680 | 4.44° C | 52% | 1010 hPa | 0 mm | 0.45 m/s, 284° | 79 W/m² | - |
| 1777983376 | 4.44° C | 53% | 1010 hPa | 0 mm | 2.24 m/s, 61° | 71 W/m² | - |
| 1777983068 | 4.44° C | 55% | 1009.9 hPa | 0 mm | 0.89 m/s, 285° | 60 W/m² | - |
| 1777982764 | 3.89° C | 55% | 1010 hPa | 0 mm | 0.89 m/s, 260° | 44 W/m² | - |
| 1777982460 | 3.89° C | 56% | 1009.8 hPa | 0 mm | 1.34 m/s, 256° | 42 W/m² | - |
| 1777982154 | 3.89° C | 58% | 1009.7 hPa | 0 mm | 0 m/s | 30 W/m² | - |
| 1777981852 | 3.89° C | 58% | 1009.8 hPa | 0 mm | 0.89 m/s, 257° | 24 W/m² | - |
| 1777981549 | 3.89° C | 59% | 1009.5 hPa | 0 mm | 0.45 m/s, 196° | 20 W/m² | - |
| 1777981245 | 3.89° C | 60% | 1009.3 hPa | 0 mm | 0.89 m/s, 260° | 18 W/m² | - |
| 1777980942 | 3.33° C | 60% | 1009.2 hPa | 0 mm | 1.34 m/s, 232° | 16 W/m² | - |
| 1777980638 | 3.89° C | 61% | 1009 hPa | 0 mm | 0.89 m/s, 242° | 15 W/m² | - |
| 1777980334 | 3.33° C | 63% | 1009.2 hPa | 0 mm | 1.34 m/s, 330° | 13 W/m² | - |
| 1777980033 | 3.33° C | 63% | 1009 hPa | 0 mm | 0.45 m/s, 216° | 10 W/m² | - |
* Rain latest hour (hover to see other rain measurements)
** Current wind speed in m/s (hover to see current wind gust speed)